Location: Caltech
(34.1382°N, 118.1253°W)
Time: 11:16:12
(UTC-07:00)

Aureole 3 Rocket - Visible Passes

Search period start: 23 March 2017 00:00
Search period end: 02 April 2017 00:00
Orbit: 400 x 1744 km, 82.5° (Epoch: 21 March)

Date Brightness Start Highest point End Pass type
(mag) Time Alt. Az. Time Alt. Az. Time Alt. Az.
23 Mar 5.5 03:49:50 31° SE 03:52:30 42° E 04:00:34 10° NNE visible
23 Mar 5.2 05:36:35 22° WSW 05:40:10 33° WNW 05:48:00 10° N visible
24 Mar 6.5 02:57:36 15° ESE 03:00:36 19° ENE 03:06:11 10° NE visible
24 Mar 4.4 04:44:21 47° SSW 04:46:40 72° W 04:55:46 10° N visible
25 Mar 5.0 03:52:06 46° SE 03:53:55 56° E 04:02:46 10° NNE visible
25 Mar 5.5 05:38:51 20° WSW 05:42:08 27° WNW 05:49:34 10° NNW visible
26 Mar 6.1 02:59:50 24° ESE 03:01:50 26° E 03:08:55 10° NNE visible
26 Mar 4.7 04:46:35 47° WSW 04:48:26 57° WNW 04:57:36 10° N visible
27 Mar 7.0 02:08:02 10° E 02:10:12 11° ENE 02:12:29 10° NE visible
27 Mar 4.7 03:54:17 64° SE 03:55:26 73° E 04:04:52 10° N visible
27 Mar 5.7 05:41:03 18° W 05:44:11 22° WNW 05:51:00 10° NNW visible
28 Mar 5.8 03:02:01 34° E 03:03:09 35° E 03:11:22 10° NNE visible
28 Mar 4.9 04:48:45 41° WSW 04:50:18 45° WNW 04:59:23 10° N visible
29 Mar 6.7 02:09:42 16° E 02:11:22 17° ENE 02:16:32 10° NE visible
29 Mar 4.6 03:56:27 79° S 03:57:05 89° W 04:06:51 10° N visible
29 Mar 6.0 05:43:11 15° W 05:46:17 18° WNW 05:52:13 10° NNW visible
30 Mar 5.4 03:04:08 46° E 03:04:34 47° E 03:13:39 10° NNE visible
30 Mar 5.3 04:50:52 35° W 04:52:15 37° WNW 05:01:04 10° N visible
31 Mar 6.4 02:11:48 23° E 02:12:37 23° ENE 02:19:29 10° NNE visible
31 Mar 4.7 03:58:33 72° W 03:58:50 73° W 04:08:46 10° N visible
31 Mar 6.3 05:45:17 12° W 05:48:27 14° WNW 05:53:04 10° NNW visible
01 Apr 5.2 03:06:13 60° E 03:06:13 60° E 03:15:48 10° NNE visible
01 Apr 5.6 04:52:57 29° W 04:54:16 30° WNW 05:02:38 10° NNW visible
